Wind_Speed
27 27 27 27 27 25 24 24 24 25 25 25 25 25 25 25 24 24 25 25 24 24 24 23 23 22 23 23 24 24 24 24 24 23 24 24 24 23 23 23 22 23 23
26 27 28 28 27 26 25 25 25 25 25 25 25 24 24 23 23 22 23 24 24 24 24 23 22 22 23 22 23 23 23 24 23 23 23 24 24 23 23 23 23 23 23
25 26 26 26 26 26 25 24 24 24 24 24 24 24 23 23 22 22 23 23 24 24 23 23 22 22 22 22 22 22 22 23 23 23 22 23 24 23 23 23 23 23 23
23 24 24 24 24 24 23 22 23 22 23 23 23 23 23 22 22 22 22 23 23 23 22 22 21 21 21 21 21 21 21 21 22 22 22 22 23 23 23 23 23 22 23
22 22 22 22 21 21 21 21 21 21 22 22 22 22 23 23 22 22 22 22 22 21 21 21 21 21 22 22 21 21 20 20 21 21 21 21 22 22 22 22 21 21 21
21 20 20 20 19 19 19 20 20 21 21 21 22 22 22 22 22 21 21 21 21 20 20 21 21 21 21 21 21 21 21 20 21 21 21 21 20 20 21 20 20 20 19
18 18 17 17 18 18 18 19 19 19 19 20 20 21 21 21 21 20 21 20 20 20 20 20 20 20 20 20 20 19 19 19 20 20 20 19 20 20 20 20 20 20 19
17 16 15 16 16 17 17 17 17 17 18 18 19 18 18 18 19 19 19 19 19 19 20 19 19 19 19 19 19 18 18 19 20 20 20 19 19 19 19 19 18 18 17
16 15 14 14 14 14 14 14 15 15 15 16 16 16 16 17 18 18 17 17 18 18 18 18 17 17 17 17 17 18 18 18 19 19 19 19 19 19 18 18 18 18 17
14 13 12 12 12 12 13 13 13 13 14 14 14 14 14 15 16 16 16 16 16 16 16 16 16 15 15 14 14 15 16 17 17 17 18 18 18 17 17 17 17 17 16
13 12 12 12 11 12 12 12 12 12 12 13 13 12 12 13 13 14 14 14 14 14 14 14 14 13 12 13 13 13 13 14 15 15 16 16 16 16 16 16 16 16 16
12 11 11 11 10 11 11 11 11 11 12 12 11 11 11 11 11 12 12 12 12 12 12 11 11 11 11 11 11 11 11 11 12 12 13 13 13 14 14 14 15 15 15
11 10 9 9 9 9 10 10 10 11 11 11 11 11 11 11 11 11 11 11 10 10 10 10 9 9 9 10 9 9 10 10 10 10 11 11 11 12 12 12 13 13 13
10 8 8 8 8 9 9 10 10 10 11 11 11 11 11 11 11 11 10 10 9 9 9 8 8 7 8 8 8 8 8 9 9 9 9 10 10 10 11 11 11 12 12
8 7 8 8 8 9 10 11 11 11 12 11 12 12 11 11 11 11 10 9 9 7 6 7 7 7 7 6 7 7 7 7 7 8 9 10 10 10 10 11 11 11 11
8 7 8 9 9 10 10 11 12 12 12 12 12 12 12 12 11 11 10 9 8 7 7 6 7 6 6 6 6 7 7 7 7 7 8 9 9 10 10 11 11 12 12
8 8 9 9 9 10 11 11 11 11 12 12 12 12 12 11 11 11 9 8 8 7 7 7 7 6 5 5 5 6 6 7 7 7 8 8 9 10 10 11 11 12 13
7 8 8 9 9 10 10 10 10 10 11 12 12 12 12 12 11 10 9 8 8 8 7 7 7 6 5 5 5 6 7 7 8 8 8 9 9 10 11 12 12 13 14
7 8 8 8 9 10 10 11 11 10 11 11 11 12 12 12 11 10 10 9 8 7 7 7 8 7 6 6 6 6 7 8 9 9 10 10 11 12 13 14 15 15 16
7 7 8 9 9 10 11 11 11 10 11 11 11 12 12 13 12 11 10 9 9 8 8 9 9 8 8 8 9 9 10 10 11 11 12 12 12 13 14 15 16 16 17
7 8 8 9 10 11 11 11 11 11 11 11 11 12 12 13 12 11 10 10 9 9 9 9 9 9 9 10 10 11 12 12 12 12 13 13 14 15 15 16 17 18 19
7 8 9 9 10 11 11 11 11 12 12 12 12 12 13 12 12 12 12 11 11 11 11 11 11 11 11 11 11 12 12 13 14 14 14 15 15 16 17 18 19 20 21
8 9 9 9 10 11 11 12 12 13 13 13 13 13 13 13 13 13 14 13 13 12 12 12 12 13 13 13 14 14 15 15 16 16 17 18 18 18 19 20 21 22 23
8 9 10 10 11 11 12 13 13 14 14 14 14 14 14 15 15 15 15 15 14 14 14 14 14 14 15 16 16 17 17 18 18 19 19 20 20 21 22 23 24 25 25
9 9 10 11 11 12 13 13 14 14 14 15 15 15 15 15 15 16 16 16 16 16 16 16 17 17 17 18 18 19 19 20 20 21 22 22 23 24 25 25 26 27 28
9 10 10 11 11 12 13 13 13 14 15 15 15 16 16 16 16 17 18 18 18 18 18 18 19 19 19 20 21 22 22 22 22 23 23 24 24 25 27 27 28 28 29
Wind_Direction
288 289 289 288 287 286 287 288 290 289 288 288 290 286 284 282 280 278 278 278 280 279 277 276 275 272 270 269 268 267 267 267 266 263 262 261 259 261 262 262 261 262 263
289 288 288 288 288 287 288 287 288 288 288 288 288 285 284 283 283 281 279 278 277 278 277 276 275 272 271 269 268 266 266 265 263 261 262 261 260 261 262 261 259 260 261
292 290 289 290 289 289 288 289 287 287 287 288 288 284 283 283 283 284 281 280 279 279 278 275 273 272 271 271 270 266 264 263 261 261 259 258 259 262 262 263 260 260 262
295 294 294 295 291 288 286 287 287 288 289 289 289 287 284 283 283 283 282 281 279 278 278 276 273 271 271 272 272 270 265 262 261 261 258 258 260 260 262 262 261 262 264
297 295 293 295 293 290 286 284 285 289 290 290 290 289 285 284 283 283 283 283 281 279 279 277 274 273 272 271 273 272 268 264 262 262 259 259 260 261 260 260 261 262 263
300 299 299 296 293 293 291 289 289 289 290 290 290 289 286 285 285 285 285 284 283 282 281 278 275 273 273 271 271 271 269 266 264 261 259 260 260 259 258 258 258 260 262
303 301 299 296 293 295 295 292 291 290 290 290 290 289 286 285 286 285 284 284 284 284 282 279 276 273 272 269 266 268 266 264 263 261 260 261 259 258 258 258 258 259 262
307 303 299 296 298 301 299 297 295 295 294 292 290 289 288 287 287 286 285 285 285 286 285 281 277 275 271 268 265 264 264 263 262 262 261 260 260 257 255 257 257 257 257
313 308 303 301 300 302 304 305 304 302 301 299 295 292 290 289 288 285 285 286 287 288 287 283 279 277 272 269 266 262 263 262 261 261 259 258 259 257 256 256 256 256 256
315 314 309 306 307 309 312 313 313 312 310 307 301 297 296 294 292 290 290 291 290 289 289 286 284 280 274 266 265 263 262 261 260 260 257 256 256 255 253 253 255 254 254
318 317 315 314 312 314 315 315 317 318 319 317 313 309 307 305 301 297 296 295 293 292 291 287 285 281 276 268 266 267 266 263 260 260 259 257 252 251 251 251 252 251 251
318 318 319 320 319 321 322 322 324 325 325 324 322 320 318 316 312 309 304 301 297 295 293 289 286 280 273 271 268 265 264 264 261 261 260 256 250 249 250 249 248 247 247
324 325 331 334 336 336 334 332 332 334 333 331 330 330 329 326 321 316 313 308 302 297 293 291 287 282 276 270 268 266 264 261 255 255 254 252 250 249 248 248 246 246 245
332 337 344 348 352 351 350 348 345 342 338 337 338 336 333 330 327 323 321 319 312 302 299 295 289 281 278 271 266 266 265 261 257 255 250 247 246 246 243 242 242 242 244
344 349 350 351 350 348 347 347 347 345 343 342 342 340 337 333 330 327 327 326 322 313 306 302 297 288 283 275 268 265 263 267 265 256 250 246 247 248 247 247 245 243 246
348 350 349 350 348 345 344 344 346 346 347 345 343 343 340 337 335 334 332 329 323 317 315 309 304 298 284 276 272 268 267 274 272 265 261 255 254 254 252 253 251 248 251
345 348 346 343 345 347 347 346 345 347 349 349 345 343 343 342 340 337 333 330 328 324 322 317 313 307 299 286 279 276 274 274 274 272 266 258 258 260 259 257 259 258 257
347 348 349 347 348 350 352 351 349 350 349 349 349 348 346 346 346 342 337 333 328 323 321 317 316 310 303 298 289 285 282 280 274 274 272 266 266 267 263 264 267 266 264
348 351 354 352 354 354 351 351 352 353 353 353 354 354 353 350 346 342 337 333 326 321 320 318 314 309 302 299 292 288 286 281 279 278 279 275 273 274 274 273 272 270 268
348 352 354 353 353 354 353 352 352 352 350 351 352 352 354 352 348 343 338 333 327 321 317 315 311 301 296 295 291 287 286 284 282 282 281 278 278 277 278 277 277 274 272
345 346 346 347 351 353 355 354 354 352 350 349 348 346 346 347 347 345 343 338 330 323 320 320 319 312 304 300 298 294 289 289 287 283 281 280 279 278 277 278 279 278 277
353 352 351 352 353 354 355 355 355 353 350 349 348 347 343 342 344 344 342 336 330 325 322 321 318 314 310 306 301 299 295 292 288 283 281 281 281 280 278 278 280 280 279
351 352 353 353 352 351 351 352 352 351 349 347 344 342 343 343 340 338 336 334 332 327 321 315 313 311 309 306 304 301 297 292 289 287 285 282 281 281 281 281 283 283 283
346 348 350 349 347 347 347 347 347 347 347 347 345 341 340 340 337 335 333 331 328 324 321 316 310 306 306 305 301 299 298 296 293 291 288 285 282 283 283 284 284 284 284
344 345 345 344 342 343 343 343 343 343 343 342 342 341 340 339 338 337 335 331 327 324 320 317 314 309 305 302 302 301 299 297 296 295 292 288 286 285 285 285 286 285 285
345 344 344 345 345 346 346 344 342 343 342 341 341 341 340 339 338 335 333 332 329 326 323 319 316 313 309 306 304 301 300 298 295 294 293 292 291 289 288 288 288 287 286
Height
5772 5771 5770 5768 5767 5765 5764 5763 5762 5761 5760 5759 5757 5756 5755 5755 5754 5753 5753 5752 5751 5751 5750 5750 5749 5749 5749 5749 5750 5750 5751 5752 5752 5753 5754 5755 5757 5759 5760 5761 5763 5764 5766
5766 5765 5763 5761 5760 5759 5758 5756 5756 5755 5753 5752 5751 5750 5749 5748 5747 5746 5746 5745 5745 5744 5743 5743 5742 5742 5742 5742 5743 5743 5744 5744 5746 5747 5747 5749 5750 5752 5753 5755 5756 5758 5759
5760 5758 5757 5755 5754 5753 5751 5750 5749 5748 5747 5746 5745 5744 5743 5742 5741 5740 5739 5739 5738 5737 5737 5736 5736 5736 5736 5736 5736 5737 5737 5738 5739 5740 5741 5742 5744 5745 5747 5749 5750 5751 5752
5755 5752 5751 5749 5747 5746 5745 5744 5743 5742 5741 5740 5739 5738 5737 5736 5735 5734 5733 5732 5731 5731 5730 5729 5729 5729 5730 5730 5730 5730 5731 5732 5733 5734 5735 5736 5737 5739 5741 5742 5743 5744 5745
5749 5747 5745 5743 5742 5740 5739 5739 5738 5737 5736 5734 5733 5732 5731 5730 5729 5728 5727 5726 5725 5724 5724 5723 5723 5723 5724 5724 5724 5724 5725 5726 5727 5728 5729 5730 5732 5733 5734 5736 5737 5738 5739
5744 5742 5741 5739 5737 5736 5735 5733 5732 5731 5730 5728 5727 5726 5725 5724 5723 5722 5721 5720 5719 5718 5717 5717 5717 5717 5717 5718 5718 5719 5719 5720 5721 5722 5724 5725 5726 5727 5728 5729 5731 5732 5733
5740 5739 5737 5735 5733 5731 5730 5729 5727 5726 5724 5723 5722 5720 5719 5718 5717 5716 5715 5714 5713 5712 5711 5711 5711 5711 5711 5712 5712 5713 5713 5714 5716 5717 5718 5719 5720 5721 5722 5724 5725 5726 5728
5737 5735 5733 5731 5730 5728 5726 5724 5723 5721 5719 5718 5716 5715 5714 5712 5711 5710 5709 5708 5707 5707 5706 5705 5705 5705 5705 5706 5706 5707 5708 5709 5710 5711 5712 5713 5714 5715 5716 5718 5719 5720 5722
5734 5731 5730 5728 5726 5725 5723 5721 5719 5717 5715 5713 5712 5710 5709 5708 5707 5706 5705 5703 5702 5702 5701 5700 5700 5700 5700 5700 5701 5702 5703 5703 5704 5705 5706 5707 5708 5709 5711 5712 5713 5715 5716
5731 5729 5727 5725 5723 5722 5720 5718 5716 5714 5712 5710 5708 5706 5705 5704 5703 5701 5700 5699 5698 5697 5696 5696 5695 5695 5696 5696 5696 5697 5698 5698 5699 5700 5701 5701 5702 5704 5705 5707 5708 5709 5711
5728 5726 5724 5723 5721 5719 5718 5716 5714 5712 5710 5708 5705 5703 5702 5701 5699 5698 5696 5695 5694 5694 5693 5692 5692 5692 5692 5692 5692 5693 5693 5694 5694 5695 5696 5697 5697 5699 5700 5701 5703 5704 5706
5727 5725 5723 5721 5719 5717 5716 5714 5712 5710 5708 5706 5704 5702 5700 5698 5696 5695 5693 5692 5691 5691 5690 5689 5689 5689 5689 5689 5689 5689 5690 5690 5691 5691 5692 5692 5693 5694 5695 5697 5698 5699 5701
5725 5723 5722 5720 5718 5716 5714 5713 5711 5709 5707 5705 5703 5701 5699 5697 5695 5693 5691 5690 5689 5688 5687 5686 5686 5686 5686 5686 5686 5687 5687 5687 5687 5688 5689 5689 5690 5691 5692 5693 5694 5696 5697
5724 5722 5721 5719 5718 5716 5714 5712 5710 5709 5706 5704 5702 5700 5698 5696 5694 5691 5690 5688 5687 5686 5685 5684 5684 5684 5684 5684 5684 5684 5684 5684 5684 5685 5686 5686 5687 5688 5689 5690 5691 5692 5693
5723 5722 5721 5719 5717 5716 5714 5712 5710 5708 5706 5703 5701 5699 5697 5694 5692 5690 5688 5687 5686 5685 5684 5683 5683 5682 5682 5682 5682 5682 5682 5682 5682 5682 5683 5684 5685 5685 5686 5687 5688 5689 5690
5723 5722 5720 5719 5717 5715 5713 5711 5709 5707 5705 5703 5700 5698 5696 5694 5691 5689 5688 5686 5685 5684 5683 5682 5682 5680 5680 5680 5680 5680 5680 5681 5681 5681 5681 5681 5682 5683 5683 5684 5685 5686 5686
5723 5721 5720 5718 5717 5715 5713 5711 5709 5707 5705 5702 5700 5698 5695 5693 5691 5689 5687 5686 5685 5684 5683 5682 5681 5679 5679 5679 5679 5679 5679 5679 5679 5679 5679 5679 5680 5680 5680 5681 5681 5682 5683
5722 5721 5719 5718 5716 5714 5712 5710 5708 5707 5705 5702 5700 5697 5695 5693 5691 5689 5687 5686 5684 5683 5682 5681 5680 5679 5678 5678 5678 5678 5677 5677 5677 5677 5677 5677 5677 5677 5677 5677 5678 5678 5678
5722 5721 5719 5718 5716 5714 5712 5710 5708 5706 5704 5702 5700 5698 5695 5693 5691 5689 5687 5685 5684 5683 5681 5680 5679 5678 5678 5677 5676 5676 5676 5675 5675 5675 5675 5674 5674 5674 5674 5674 5673 5674 5674
5722 5721 5719 5718 5716 5714 5712 5710 5708 5706 5704 5702 5700 5698 5695 5693 5690 5689 5687 5685 5683 5682 5680 5679 5678 5677 5676 5675 5675 5674 5674 5673 5672 5672 5671 5671 5671 5670 5670 5670 5669 5669 5669
5722 5721 5719 5718 5716 5714 5712 5710 5708 5706 5704 5702 5700 5697 5695 5693 5690 5688 5686 5685 5683 5681 5680 5678 5677 5676 5675 5673 5673 5672 5671 5670 5669 5668 5668 5667 5667 5666 5666 5665 5665 5664 5663
5721 5720 5719 5717 5716 5714 5712 5710 5708 5706 5703 5701 5699 5697 5695 5692 5690 5688 5686 5684 5682 5680 5678 5677 5675 5674 5673 5671 5670 5669 5668 5667 5666 5665 5664 5663 5662 5662 5661 5660 5659 5659 5657
5722 5720 5718 5717 5715 5713 5711 5709 5707 5705 5703 5700 5698 5696 5694 5692 5690 5687 5685 5683 5681 5679 5677 5675 5674 5672 5670 5669 5667 5666 5664 5662 5661 5660 5659 5658 5657 5657 5656 5654 5653 5652 5651
5721 5720 5718 5716 5715 5713 5711 5709 5706 5704 5702 5700 5697 5695 5693 5691 5688 5686 5684 5681 5679 5677 5675 5673 5671 5669 5667 5665 5663 5662 5660 5658 5656 5655 5654 5653 5652 5650 5649 5648 5646 5645 5643
5721 5719 5717 5716 5714 5712 5710 5708 5705 5703 5701 5699 5696 5694 5692 5689 5687 5685 5682 5679 5677 5674 5672 5670 5667 5665 5663 5661 5659 5657 5655 5653 5651 5649 5647 5646 5645 5643 5641 5640 5638 5636 5635
5720 5718 5717 5715 5713 5711 5709 5707 5704 5702 5700 5698 5695 5693 5690 5688 5685 5683 5680 5677 5674 5672 5669 5666 5663 5661 5659 5656 5654 5651 5649 5647 5645 5643 5641 5639 5637 5635 5633 5631 5629 5627 5625